START_TIME,STEP,MOV.,A39,t_acc.,A33,t_acc.,P32,t_acc.,P31,t_acc.
1979-03-01 21:00:12.160 ,1,0,24.,0.8,1.,0.8,12.,0.8,1088.,0.8
1979-03-01 21:00:12.960 ,1,0,19.,0.8,3.,0.8,7.,0.8,1056.,0.8
1979-03-01 21:00:13.760 ,1,0,24.,0.8,1.,0.8,8.,0.8,1056.,0.8
1979-03-01 21:00:14.560 ,1,0,20.,0.8,1.,0.8,8.,0.8,1024.,0.8
1979-03-01 21:00:15.360 ,1,0,20.,0.8,1.,0.8,8.,0.8,1184.,0.8
1979-03-01 21:00:16.160 ,1,0,21.,0.8,2.,0.8,5.,0.8,1152.,0.8
1979-03-01 21:00:16.960 ,1,0,15.,0.8,2.,0.8,5.,0.8,1120.,0.8
1979-03-01 21:00:17.760 ,1,0,22.,0.8,0.,0.8,5.,0.8,1056.,0.8
1979-03-01 21:00:18.560 ,1,0,13.,0.8,1.,0.8,13.,0.8,1088.,0.8
1979-03-01 21:00:19.360 ,1,0,16.,0.8,2.,0.8,8.,0.8,1056.,0.8
1979-03-01 21:00:20.160 ,1,0,17.,0.8,1.,0.8,9.,0.8,1088.,0.8
1979-03-01 21:00:20.960 ,1,0,25.,0.8,1.,0.8,4.,0.8,1088.,0.8
1979-03-01 21:00:21.760 ,1,0,17.,0.8,3.,0.8,9.,0.8,1120.,0.8
1979-03-01 21:00:22.560 ,1,0,22.,0.8,3.,0.8,14.,0.8,1152.,0.8
1979-03-01 21:00:23.360 ,1,0,7.,0.8,2.,0.8,4.,0.8,1152.,0.8
1979-03-01 21:00:24.160 ,1,0,16.,0.8,0.,0.8,12.,0.8,1120.,0.8
1979-03-01 21:00:24.960 ,1,0,11.,0.8,1.,0.8,5.,0.8,1088.,0.8
1979-03-01 21:00:25.760 ,1,0,16.,0.8,2.,0.8,8.,0.8,1056.,0.8
1979-03-01 21:00:26.560 ,1,0,18.,0.8,4.,0.8,8.,0.8,1184.,0.8
1979-03-01 21:00:27.360 ,1,0,17.,0.8,0.,0.8,6.,0.8,1088.,0.8
1979-03-01 21:00:28.160 ,1,0,16.,0.8,3.,0.8,3.,0.8,1184.,0.8
1979-03-01 21:00:28.960 ,1,0,18.,0.8,1.,0.8,6.,0.8,1088.,0.8
1979-03-01 21:00:29.760 ,1,0,17.,0.8,3.,0.8,5.,0.8,1120.,0.8
1979-03-01 21:00:30.560 ,1,0,19.,0.8,0.,0.8,7.,0.8,1088.,0.8
1979-03-01 21:00:31.360 ,1,0,18.,0.8,1.,0.8,10.,0.8,1152.,0.8
1979-03-01 21:00:32.160 ,1,0,17.,0.8,1.,0.8,3.,0.8,1152.,0.8
1979-03-01 21:00:32.960 ,1,0,17.,0.8,2.,0.8,2.,0.8,1088.,0.8
1979-03-01 21:00:33.760 ,1,0,11.,0.8,1.,0.8,7.,0.8,1120.,0.8
1979-03-01 21:00:34.560 ,1,0,12.,0.8,2.,0.8,5.,0.8,1120.,0.8
1979-03-01 21:00:35.360 ,1,0,15.,0.8,1.,0.8,4.,0.8,1120.,0.8
1979-03-01 21:00:36.160 ,2,0,23.,0.8,2.,0.8,8.,0.8,1024.,0.8
1979-03-01 21:00:36.960 ,2,0,7.,0.8,0.,0.8,6.,0.8,1120.,0.8
1979-03-01 21:00:37.760 ,2,0,18.,0.8,1.,0.8,9.,0.8,1120.,0.8
1979-03-01 21:00:38.560 ,2,0,14.,0.8,4.,0.8,6.,0.8,1152.,0.8
1979-03-01 21:00:39.360 ,2,0,13.,0.8,2.,0.8,7.,0.8,1088.,0.8
1979-03-01 21:00:40.160 ,2,0,13.,0.8,3.,0.8,8.,0.8,1120.,0.8
1979-03-01 21:00:40.960 ,2,0,15.,0.8,0.,0.8,7.,0.8,1120.,0.8
1979-03-01 21:00:41.760 ,2,0,18.,0.8,0.,0.8,6.,0.8,1120.,0.8
1979-03-01 21:00:42.560 ,2,0,13.,0.8,0.,0.8,9.,0.8,1056.,0.8
1979-03-01 21:00:43.360 ,2,0,17.,0.8,2.,0.8,5.,0.8,1024.,0.8
1979-03-01 21:00:44.160 ,2,0,27.,0.8,0.,0.8,8.,0.8,1088.,0.8
1979-03-01 21:00:44.960 ,2,0,26.,0.8,4.,0.8,8.,0.8,1024.,0.8
1979-03-01 21:00:45.760 ,2,0,25.,0.8,0.,0.8,8.,0.8,1056.,0.8
1979-03-01 21:00:46.560 ,2,0,24.,0.8,2.,0.8,7.,0.8,976.,0.8
1979-03-01 21:00:47.360 ,2,0,15.,0.8,0.,0.8,6.,0.8,1008.,0.8
1979-03-01 21:00:48.160 ,2,0,17.,0.8,1.,0.8,4.,0.8,1088.,0.8
1979-03-01 21:00:48.960 ,2,0,28.,0.8,3.,0.8,4.,0.8,1056.,0.8
1979-03-01 21:00:49.760 ,2,0,27.,0.8,2.,0.8,12.,0.8,1056.,0.8
1979-03-01 21:00:50.560 ,2,0,24.,0.8,3.,0.8,10.,0.8,1056.,0.8
1979-03-01 21:00:51.360 ,2,0,20.,0.8,1.,0.8,10.,0.8,1024.,0.8
1979-03-01 21:00:52.160 ,2,0,21.,0.8,1.,0.8,6.,0.8,1008.,0.8
1979-03-01 21:00:52.960 ,2,0,15.,0.8,1.,0.8,7.,0.8,1056.,0.8
1979-03-01 21:00:53.760 ,2,0,19.,0.8,3.,0.8,4.,0.8,1008.,0.8
1979-03-01 21:00:54.560 ,2,0,22.,0.8,1.,0.8,9.,0.8,1008.,0.8
1979-03-01 21:00:55.360 ,2,0,17.,0.8,3.,0.8,4.,0.8,1120.,0.8
1979-03-01 21:00:56.160 ,2,0,21.,0.8,0.,0.8,12.,0.8,992.,0.8
1979-03-01 21:00:56.960 ,2,0,21.,0.8,0.,0.8,2.,0.8,1056.,0.8
1979-03-01 21:00:57.760 ,2,0,25.,0.8,2.,0.8,11.,0.8,1120.,0.8
1979-03-01 21:00:58.560 ,2,0,17.,0.8,1.,0.8,6.,0.8,1056.,0.8
1979-03-01 21:00:59.360 ,2,0,19.,0.8,0.,0.8,12.,0.8,1024.,0.8
1979-03-01 21:01:00.160 ,3,0,17.,0.8,0.,0.8,7.,0.8,1024.,0.8
1979-03-01 21:01:00.960 ,3,0,14.,0.8,1.,0.8,7.,0.8,1056.,0.8
1979-03-01 21:01:01.760 ,3,0,33.,0.8,1.,0.8,4.,0.8,1056.,0.8
1979-03-01 21:01:02.560 ,3,0,15.,0.8,1.,0.8,5.,0.8,1056.,0.8
1979-03-01 21:01:03.360 ,3,0,23.,0.8,1.,0.8,10.,0.8,1024.,0.8
1979-03-01 21:01:04.160 ,3,0,22.,0.8,0.,0.8,18.,0.8,1024.,0.8
1979-03-01 21:01:04.960 ,3,0,17.,0.8,1.,0.8,13.,0.8,1056.,0.8
1979-03-01 21:01:05.760 ,3,0,19.,0.8,0.,0.8,9.,0.8,1024.,0.8
1979-03-01 21:01:06.560 ,3,0,29.,0.8,2.,0.8,3.,0.8,816.,0.8
1979-03-01 21:01:07.360 ,3,0,42.,0.8,2.,0.8,8.,0.8,576.,0.8
1979-03-01 21:01:08.160 ,3,0,45.,0.8,2.,0.8,11.,0.8,544.,0.8
1979-03-01 21:01:08.960 ,3,0,35.,0.8,5.,0.8,9.,0.8,560.,0.8
1979-03-01 21:01:09.760 ,3,0,42.,0.8,3.,0.8,17.,0.8,592.,0.8
1979-03-01 21:01:10.560 ,3,0,46.,0.8,3.,0.8,7.,0.8,576.,0.8
1979-03-01 21:01:11.360 ,3,0,44.,0.8,1.,0.8,7.,0.8,640.,0.8
1979-03-01 21:01:12.160 ,3,0,43.,0.8,1.,0.8,11.,0.8,544.,0.8
1979-03-01 21:01:12.960 ,3,0,45.,0.8,2.,0.8,10.,0.8,672.,0.8
1979-03-01 21:01:13.760 ,3,0,40.,0.8,1.,0.8,14.,0.8,592.,0.8
1979-03-01 21:01:14.560 ,3,0,44.,0.8,5.,0.8,17.,0.8,576.,0.8
1979-03-01 21:01:15.360 ,3,0,37.,0.8,2.,0.8,13.,0.8,608.,0.8
1979-03-01 21:01:16.160 ,3,0,52.,0.8,2.,0.8,11.,0.8,544.,0.8
1979-03-01 21:01:16.960 ,3,0,40.,0.8,2.,0.8,13.,0.8,544.,0.8
1979-03-01 21:01:17.760 ,3,0,47.,0.8,3.,0.8,11.,0.8,592.,0.8
1979-03-01 21:01:18.560 ,3,0,32.,0.8,1.,0.8,13.,0.8,624.,0.8
1979-03-01 21:01:19.360 ,3,0,47.,0.8,2.,0.8,13.,0.8,576.,0.8
1979-03-01 21:01:20.160 ,3,0,37.,0.8,2.,0.8,17.,0.8,560.,0.8
1979-03-01 21:01:20.960 ,3,0,37.,0.8,2.,0.8,15.,0.8,608.,0.8
1979-03-01 21:01:21.760 ,3,0,33.,0.8,1.,0.8,11.,0.8,560.,0.8
1979-03-01 21:01:22.560 ,3,0,45.,0.8,3.,0.8,11.,0.8,576.,0.8
1979-03-01 21:01:23.360 ,3,0,45.,0.8,0.,0.8,7.,0.8,624.,0.8
1979-03-01 21:01:24.160 ,4,0,37.,0.8,0.,0.8,8.,0.8,592.,0.8
1979-03-01 21:01:24.960 ,4,0,36.,0.8,4.,0.8,15.,0.8,624.,0.8
1979-03-01 21:01:25.760 ,4,0,47.,0.8,3.,0.8,9.,0.8,608.,0.8
1979-03-01 21:01:26.560 ,4,0,41.,0.8,0.,0.8,10.,0.8,576.,0.8
1979-03-01 21:01:27.360 ,4,0,58.,0.8,1.,0.8,14.,0.8,576.,0.8
1979-03-01 21:01:28.160 ,4,0,54.,0.8,1.,0.8,8.,0.8,560.,0.8
1979-03-01 21:01:28.960 ,4,0,38.,0.8,2.,0.8,18.,0.8,624.,0.8
1979-03-01 21:01:29.760 ,4,0,42.,0.8,1.,0.8,19.,0.8,576.,0.8
1979-03-01 21:01:30.560 ,4,0,60.,0.8,2.,0.8,18.,0.8,784.,0.8
1979-03-01 21:01:31.360 ,4,0,96.,0.8,1.,0.8,20.,0.8,1024.,0.8
1979-03-01 21:01:32.160 ,4,0,92.,0.8,2.,0.8,12.,0.8,1056.,0.8
1979-03-01 21:01:32.960 ,4,0,86.,0.8,5.,0.8,18.,0.8,1056.,0.8
1979-03-01 21:01:33.760 ,4,0,110.,0.8,4.,0.8,21.,0.8,1088.,0.8
1979-03-01 21:01:34.560 ,4,0,114.,0.8,3.,0.8,25.,0.8,1088.,0.8
1979-03-01 21:01:35.360 ,4,0,88.,0.8,4.,0.8,11.,0.8,1024.,0.8
1979-03-01 21:01:36.160 ,4,0,106.,0.8,5.,0.8,21.,0.8,1024.,0.8
1979-03-01 21:01:36.960 ,4,0,94.,0.8,3.,0.8,23.,0.8,1056.,0.8
1979-03-01 21:01:37.760 ,4,0,116.,0.8,4.,0.8,22.,0.8,1056.,0.8
1979-03-01 21:01:38.560 ,4,0,126.,0.8,5.,0.8,14.,0.8,992.,0.8
1979-03-01 21:01:39.360 ,4,0,104.,0.8,4.,0.8,13.,0.8,1024.,0.8
1979-03-01 21:01:40.160 ,4,0,106.,0.8,3.,0.8,15.,0.8,1056.,0.8
1979-03-01 21:01:40.960 ,4,0,116.,0.8,8.,0.8,26.,0.8,1088.,0.8
1979-03-01 21:01:41.760 ,4,0,80.,0.8,5.,0.8,20.,0.8,1088.,0.8
1979-03-01 21:01:42.560 ,4,0,74.,0.8,5.,0.8,26.,0.8,1056.,0.8
1979-03-01 21:01:43.360 ,4,0,106.,0.8,4.,0.8,21.,0.8,1056.,0.8
1979-03-01 21:01:44.160 ,4,0,118.,0.8,1.,0.8,23.,0.8,1088.,0.8
1979-03-01 21:01:44.960 ,4,0,92.,0.8,3.,0.8,18.,0.8,1024.,0.8
1979-03-01 21:01:45.760 ,4,0,102.,0.8,2.,0.8,21.,0.8,1056.,0.8
1979-03-01 21:01:46.560 ,4,0,116.,0.8,4.,0.8,12.,0.8,1088.,0.8
1979-03-01 21:01:47.360 ,4,0,104.,0.8,1.,0.8,18.,0.8,1056.,0.8
1979-03-01 21:01:48.160 ,5,0,104.,0.8,1.,0.8,17.,0.8,1088.,0.8
1979-03-01 21:01:48.960 ,5,0,90.,0.8,3.,0.8,17.,0.8,1120.,0.8
1979-03-01 21:01:49.760 ,5,0,106.,0.8,8.,0.8,17.,0.8,1056.,0.8
1979-03-01 21:01:50.560 ,5,0,96.,0.8,4.,0.8,19.,0.8,1056.,0.8
1979-03-01 21:01:51.360 ,5,0,104.,0.8,5.,0.8,28.,0.8,1088.,0.8
1979-03-01 21:01:52.160 ,5,0,92.,0.8,5.,0.8,18.,0.8,1120.,0.8
1979-03-01 21:01:52.960 ,5,0,114.,0.8,4.,0.8,16.,0.8,1152.,0.8
1979-03-01 21:01:53.760 ,5,0,90.,0.8,2.,0.8,18.,0.8,1088.,0.8
1979-03-01 21:01:54.560 ,5,0,122.,0.8,3.,0.8,23.,0.8,1152.,0.8
1979-03-01 21:01:55.360 ,5,0,184.,0.8,5.,0.8,20.,0.8,1152.,0.8
1979-03-01 21:01:56.160 ,5,0,196.,0.8,6.,0.8,19.,0.8,1152.,0.8
1979-03-01 21:01:56.960 ,5,0,224.,0.8,9.,0.8,29.,0.8,1120.,0.8
1979-03-01 21:01:57.760 ,5,0,208.,0.8,5.,0.8,20.,0.8,1120.,0.8
1979-03-01 21:01:58.560 ,5,0,204.,0.8,5.,0.8,16.,0.8,1120.,0.8
1979-03-01 21:01:59.360 ,5,0,200.,0.8,4.,0.8,22.,0.8,1120.,0.8
1979-03-01 21:02:00.160 ,5,0,196.,0.8,7.,0.8,20.,0.8,1120.,0.8
1979-03-01 21:02:00.960 ,5,0,212.,0.8,9.,0.8,15.,0.8,1152.,0.8
1979-03-01 21:02:01.760 ,5,0,184.,0.8,5.,0.8,14.,0.8,1088.,0.8
1979-03-01 21:02:02.560 ,5,0,208.,0.8,11.,0.8,29.,0.8,1152.,0.8
1979-03-01 21:02:03.360 ,5,0,196.,0.8,7.,0.8,24.,0.8,1152.,0.8
1979-03-01 21:02:04.160 ,5,0,200.,0.8,10.,0.8,23.,0.8,1152.,0.8
1979-03-01 21:02:04.960 ,5,0,208.,0.8,0.,0.8,25.,0.8,1120.,0.8
1979-03-01 21:02:05.760 ,5,0,220.,0.8,4.,0.8,22.,0.8,1120.,0.8
1979-03-01 21:02:06.560 ,5,0,192.,0.8,8.,0.8,16.,0.8,1152.,0.8
1979-03-01 21:02:07.360 ,5,0,224.,0.8,5.,0.8,25.,0.8,1120.,0.8
1979-03-01 21:02:08.160 ,5,0,216.,0.8,3.,0.8,19.,0.8,1120.,0.8
1979-03-01 21:02:08.960 ,5,0,216.,0.8,5.,0.8,22.,0.8,1120.,0.8
1979-03-01 21:02:09.760 ,5,0,224.,0.8,7.,0.8,20.,0.8,1120.,0.8
1979-03-01 21:02:10.560 ,5,0,212.,0.8,3.,0.8,24.,0.8,1056.,0.8
1979-03-01 21:02:11.360 ,5,0,200.,0.8,9.,0.8,25.,0.8,1120.,0.8
1979-03-01 21:02:12.160 ,6,0,204.,0.8,8.,0.8,21.,0.8,1184.,0.8
1979-03-01 21:02:12.960 ,6,0,208.,0.8,2.,0.8,14.,0.8,1120.,0.8
1979-03-01 21:02:13.760 ,6,0,208.,0.8,12.,0.8,19.,0.8,1088.,0.8
1979-03-01 21:02:14.560 ,6,0,204.,0.8,5.,0.8,23.,0.8,1152.,0.8
1979-03-01 21:02:15.360 ,6,0,192.,0.8,8.,0.8,20.,0.8,1120.,0.8
1979-03-01 21:02:16.160 ,6,0,216.,0.8,3.,0.8,24.,0.8,1120.,0.8
1979-03-01 21:02:16.960 ,6,0,208.,0.8,6.,0.8,19.,0.8,1152.,0.8
1979-03-01 21:02:17.760 ,6,0,172.,0.8,5.,0.8,16.,0.8,1088.,0.8
1979-03-01 21:02:18.560 ,6,0,172.,0.8,4.,0.8,13.,0.8,1120.,0.8
1979-03-01 21:02:19.360 ,6,0,156.,0.8,8.,0.8,21.,0.8,1120.,0.8
1979-03-01 21:02:20.160 ,6,0,136.,0.8,7.,0.8,21.,0.8,1088.,0.8
1979-03-01 21:02:20.960 ,6,0,152.,0.8,4.,0.8,18.,0.8,1120.,0.8
1979-03-01 21:02:21.760 ,6,0,148.,0.8,3.,0.8,17.,0.8,1120.,0.8
1979-03-01 21:02:22.560 ,6,0,172.,0.8,1.,0.8,18.,0.8,1120.,0.8
1979-03-01 21:02:23.360 ,6,0,140.,0.8,5.,0.8,18.,0.8,1152.,0.8
1979-03-01 21:02:24.160 ,6,0,156.,0.8,4.,0.8,21.,0.8,1120.,0.8
1979-03-01 21:02:24.960 ,6,0,140.,0.8,3.,0.8,25.,0.8,1088.,0.8
1979-03-01 21:02:25.760 ,6,0,164.,0.8,6.,0.8,24.,0.8,1120.,0.8
1979-03-01 21:02:26.560 ,6,0,148.,0.8,4.,0.8,24.,0.8,1088.,0.8
1979-03-01 21:02:27.360 ,6,0,152.,0.8,5.,0.8,20.,0.8,1056.,0.8
1979-03-01 21:02:28.160 ,6,0,156.,0.8,6.,0.8,20.,0.8,1088.,0.8
1979-03-01 21:02:28.960 ,6,0,156.,0.8,7.,0.8,18.,0.8,1088.,0.8
1979-03-01 21:02:29.760 ,6,0,136.,0.8,5.,0.8,14.,0.8,1184.,0.8
1979-03-01 21:02:30.560 ,6,0,176.,0.8,4.,0.8,18.,0.8,1120.,0.8
1979-03-01 21:02:31.360 ,6,0,132.,0.8,5.,0.8,22.,0.8,1120.,0.8
1979-03-01 21:02:32.160 ,6,0,156.,0.8,2.,0.8,19.,0.8,1088.,0.8
1979-03-01 21:02:32.960 ,6,0,140.,0.8,6.,0.8,23.,0.8,1088.,0.8
1979-03-01 21:02:33.760 ,6,0,140.,0.8,2.,0.8,21.,0.8,1120.,0.8
1979-03-01 21:02:34.560 ,6,0,156.,0.8,7.,0.8,12.,0.8,1056.,0.8
1979-03-01 21:02:35.360 ,6,0,152.,0.8,5.,0.8,17.,0.8,1088.,0.8
1979-03-01 21:02:36.160 ,7,0,152.,0.8,4.,0.8,24.,0.8,1056.,0.8
1979-03-01 21:02:36.960 ,7,0,136.,0.8,3.,0.8,20.,0.8,1120.,0.8
1979-03-01 21:02:37.760 ,7,0,168.,0.8,3.,0.8,14.,0.8,1088.,0.8
1979-03-01 21:02:38.560 ,7,0,144.,0.8,2.,0.8,20.,0.8,1120.,0.8
1979-03-01 21:02:39.360 ,7,0,140.,0.8,7.,0.8,14.,0.8,1088.,0.8
1979-03-01 21:02:40.160 ,7,0,126.,0.8,7.,0.8,19.,0.8,1056.,0.8
1979-03-01 21:02:40.960 ,7,0,156.,0.8,4.,0.8,11.,0.8,1024.,0.8
1979-03-01 21:02:41.760 ,7,0,144.,0.8,3.,0.8,15.,0.8,1152.,0.8
1979-03-01 21:02:42.560 ,7,0,68.,0.8,2.,0.8,9.,0.8,1008.,0.8
1979-03-01 21:02:43.360 ,7,0,2.,0.8,0.,0.8,0.,0.8,944.,0.8
1979-03-01 21:02:44.160 ,7,0,0.,0.8,0.,0.8,0.,0.8,976.,0.8
1979-03-01 21:02:44.960 ,7,0,2.,0.8,0.,0.8,0.,0.8,944.,0.8
1979-03-01 21:02:45.760 ,7,0,,0,,0,,0,,0
1979-03-01 21:02:46.560 ,7,0,3.,0.8,0.,0.8,0.,0.8,960.,0.8
1979-03-01 21:02:47.360 ,7,0,3.,0.8,0.,0.8,0.,0.8,1008.,0.8
1979-03-01 21:02:48.160 ,7,0,0.,0.8,0.,0.8,0.,0.8,848.,0.8
1979-03-01 21:02:48.960 ,7,0,1.,0.8,0.,0.8,0.,0.8,976.,0.8
1979-03-01 21:02:49.760 ,7,0,2.,0.8,0.,0.8,0.,0.8,960.,0.8
1979-03-01 21:02:50.560 ,7,0,2.,0.8,0.,0.8,0.,0.8,944.,0.8
1979-03-01 21:02:51.360 ,7,0,1.,0.8,0.,0.8,0.,0.8,912.,0.8
1979-03-01 21:02:52.160 ,7,0,5.,0.8,0.,0.8,0.,0.8,928.,0.8
1979-03-01 21:02:52.960 ,7,0,2.,0.8,0.,0.8,0.,0.8,976.,0.8
1979-03-01 21:02:53.760 ,7,0,2.,0.8,0.,0.8,0.,0.8,944.,0.8
1979-03-01 21:02:54.560 ,7,0,1.,0.8,0.,0.8,0.,0.8,992.,0.8
1979-03-01 21:02:55.360 ,7,0,0.,0.8,0.,0.8,0.,0.8,944.,0.8
1979-03-01 21:02:56.160 ,7,0,2.,0.8,0.,0.8,0.,0.8,1008.,0.8
1979-03-01 21:02:56.960 ,7,0,1.,0.8,0.,0.8,0.,0.8,960.,0.8
1979-03-01 21:02:57.760 ,7,0,2.,0.8,0.,0.8,0.,0.8,976.,0.8
1979-03-01 21:02:58.560 ,7,0,0.,0.8,0.,0.8,0.,0.8,1008.,0.8
1979-03-01 21:02:59.360 ,7,0,1.,0.8,0.,0.8,0.,0.8,928.,0.8
1979-03-01 21:03:00.160 ,7,0,2.,0.8,0.,0.8,0.,0.8,960.,0.8
1979-03-01 21:03:00.960 ,7,0,2.,0.8,0.,0.8,0.,0.8,928.,0.8
1979-03-01 21:03:01.760 ,7,0,0.,0.8,0.,0.8,0.,0.8,896.,0.8
1979-03-01 21:03:02.560 ,7,0,1.,0.8,0.,0.8,0.,0.8,912.,0.8
1979-03-01 21:03:03.360 ,7,0,0.,0.8,0.,0.8,0.,0.8,896.,0.8
1979-03-01 21:03:04.160 ,7,0,3.,0.8,0.,0.8,0.,0.8,912.,0.8
1979-03-01 21:03:04.960 ,7,0,3.,0.8,0.,0.8,0.,0.8,960.,0.8
1979-03-01 21:03:05.760 ,7,0,2.,0.8,0.,0.8,0.,0.8,912.,0.8
1979-03-01 21:03:06.560 ,7,0,2.,0.8,0.,0.8,0.,0.8,928.,0.8
1979-03-01 21:03:07.360 ,7,0,1.,0.8,0.,0.8,0.,0.8,960.,0.8
1979-03-01 21:03:08.160 ,7,0,3.,0.8,0.,0.8,0.,0.8,896.,0.8
1979-03-01 21:03:08.960 ,7,0,3.,0.8,0.,0.8,0.,0.8,944.,0.8
1979-03-01 21:03:09.760 ,7,0,2.,0.8,0.,0.8,0.,0.8,992.,0.8
1979-03-01 21:03:10.560 ,7,0,1.,0.8,0.,0.8,0.,0.8,912.,0.8
1979-03-01 21:03:11.360 ,7,0,2.,0.8,0.,0.8,0.,0.8,912.,0.8
1979-03-01 21:03:12.160 ,7,0,3.,0.8,0.,0.8,1.,0.8,896.,0.8
1979-03-01 21:03:12.960 ,7,0,2.,0.8,0.,0.8,0.,0.8,928.,0.8
1979-03-01 21:03:13.760 ,7,0,1.,0.8,0.,0.8,0.,0.8,944.,0.8
1979-03-01 21:03:14.560 ,7,0,2.,0.8,0.,0.8,0.,0.8,928.,0.8
1979-03-01 21:03:15.360 ,7,0,3.,0.8,0.,0.8,0.,0.8,960.,0.8
1979-03-01 21:03:16.160 ,7,0,0.,0.8,0.,0.8,0.,0.8,992.,0.8
1979-03-01 21:03:16.960 ,7,0,3.,0.8,0.,0.8,0.,0.8,976.,0.8
1979-03-01 21:03:17.760 ,7,0,1.,0.8,0.,0.8,0.,0.8,992.,0.8
1979-03-01 21:03:18.560 ,7,0,1.,0.8,0.,0.8,0.,0.8,928.,0.8
1979-03-01 21:03:19.360 ,7,0,0.,0.8,0.,0.8,0.,0.8,1056.,0.8
1979-03-01 21:03:20.160 ,7,0,2.,0.8,0.,0.8,0.,0.8,944.,0.8
1979-03-01 21:03:20.960 ,7,0,1.,0.8,0.,0.8,0.,0.8,928.,0.8
1979-03-01 21:03:21.760 ,7,0,0.,0.8,0.,0.8,0.,0.8,976.,0.8
1979-03-01 21:03:22.560 ,7,0,3.,0.8,0.,0.8,0.,0.8,912.,0.8
1979-03-01 21:03:23.360 ,7,0,2.,0.8,0.,0.8,0.,0.8,992.,0.8
1979-03-01 21:03:24.160 ,6,0,0.,0.8,0.,0.8,0.,0.8,1008.,0.8
1979-03-01 21:03:24.960 ,6,0,2.,0.8,0.,0.8,0.,0.8,960.,0.8
1979-03-01 21:03:25.760 ,6,0,2.,0.8,0.,0.8,0.,0.8,1008.,0.8
1979-03-01 21:03:26.560 ,6,0,2.,0.8,0.,0.8,0.,0.8,928.,0.8
1979-03-01 21:03:27.360 ,6,0,3.,0.8,0.,0.8,0.,0.8,944.,0.8
1979-03-01 21:03:28.160 ,6,0,2.,0.8,0.,0.8,0.,0.8,928.,0.8
1979-03-01 21:03:28.960 ,6,0,2.,0.8,0.,0.8,0.,0.8,928.,0.8
1979-03-01 21:03:29.760 ,6,0,1.,0.8,0.,0.8,0.,0.8,960.,0.8
1979-03-01 21:03:30.560 ,6,0,78.,0.8,0.,0.8,9.,0.8,1008.,0.8
1979-03-01 21:03:31.360 ,6,0,156.,0.8,11.,0.8,22.,0.8,1152.,0.8
1979-03-01 21:03:32.160 ,6,0,126.,0.8,5.,0.8,20.,0.8,1216.,0.8
1979-03-01 21:03:32.960 ,6,0,104.,0.8,8.,0.8,14.,0.8,1120.,0.8
1979-03-01 21:03:33.760 ,6,0,132.,0.8,4.,0.8,14.,0.8,1184.,0.8
1979-03-01 21:03:34.560 ,6,0,144.,0.8,5.,0.8,15.,0.8,1120.,0.8
1979-03-01 21:03:35.360 ,6,0,132.,0.8,6.,0.8,13.,0.8,1120.,0.8
1979-03-01 21:03:36.160 ,6,0,128.,0.8,0.,0.8,14.,0.8,1120.,0.8
1979-03-01 21:03:36.960 ,6,0,128.,0.8,5.,0.8,20.,0.8,1120.,0.8
1979-03-01 21:03:37.760 ,6,0,144.,0.8,4.,0.8,12.,0.8,1120.,0.8
1979-03-01 21:03:38.560 ,6,0,140.,0.8,3.,0.8,16.,0.8,1120.,0.8
1979-03-01 21:03:39.360 ,6,0,132.,0.8,4.,0.8,17.,0.8,1088.,0.8
1979-03-01 21:03:40.160 ,6,0,118.,0.8,5.,0.8,15.,0.8,1152.,0.8
1979-03-01 21:03:40.960 ,6,0,132.,0.8,5.,0.8,10.,0.8,1152.,0.8
1979-03-01 21:03:41.760 ,6,0,122.,0.8,7.,0.8,20.,0.8,1152.,0.8
1979-03-01 21:03:42.560 ,6,0,128.,0.8,7.,0.8,17.,0.8,1088.,0.8
1979-03-01 21:03:43.360 ,6,0,120.,0.8,3.,0.8,17.,0.8,1088.,0.8
1979-03-01 21:03:44.160 ,6,0,136.,0.8,4.,0.8,16.,0.8,1120.,0.8
1979-03-01 21:03:44.960 ,6,0,132.,0.8,2.,0.8,18.,0.8,1184.,0.8
1979-03-01 21:03:45.760 ,6,0,156.,0.8,2.,0.8,15.,0.8,1216.,0.8
1979-03-01 21:03:46.560 ,6,0,122.,0.8,2.,0.8,17.,0.8,1088.,0.8
1979-03-01 21:03:47.360 ,6,0,124.,0.8,5.,0.8,16.,0.8,1120.,0.8
1979-03-01 21:03:48.160 ,5,0,122.,0.8,5.,0.8,15.,0.8,1120.,0.8
1979-03-01 21:03:48.960 ,5,0,136.,0.8,7.,0.8,25.,0.8,1184.,0.8
1979-03-01 21:03:49.760 ,5,0,132.,0.8,6.,0.8,14.,0.8,1120.,0.8
1979-03-01 21:03:50.560 ,5,0,114.,0.8,3.,0.8,20.,0.8,1088.,0.8
1979-03-01 21:03:51.360 ,5,0,124.,0.8,2.,0.8,14.,0.8,1184.,0.8
1979-03-01 21:03:52.160 ,5,0,144.,0.8,4.,0.8,3.,0.8,1120.,0.8
1979-03-01 21:03:52.960 ,5,0,132.,0.8,4.,0.8,22.,0.8,1152.,0.8
1979-03-01 21:03:53.760 ,5,0,148.,0.8,3.,0.8,18.,0.8,1088.,0.8
1979-03-01 21:03:54.560 ,5,0,156.,0.8,3.,0.8,19.,0.8,1120.,0.8
1979-03-01 21:03:55.360 ,5,0,168.,0.8,2.,0.8,22.,0.8,1056.,0.8
1979-03-01 21:03:56.160 ,5,0,176.,0.8,7.,0.8,22.,0.8,1152.,0.8
1979-03-01 21:03:56.960 ,5,0,200.,0.8,9.,0.8,21.,0.8,1056.,0.8
1979-03-01 21:03:57.760 ,5,0,180.,0.8,4.,0.8,13.,0.8,1120.,0.8
1979-03-01 21:03:58.560 ,5,0,184.,0.8,4.,0.8,16.,0.8,1120.,0.8
1979-03-01 21:03:59.360 ,5,0,172.,0.8,4.,0.8,17.,0.8,1120.,0.8
1979-03-01 21:04:00.160 ,5,0,160.,0.8,6.,0.8,20.,0.8,1088.,0.8
1979-03-01 21:04:00.960 ,5,0,180.,0.8,4.,0.8,15.,0.8,1120.,0.8
1979-03-01 21:04:01.760 ,5,0,208.,0.8,4.,0.8,10.,0.8,1152.,0.8
1979-03-01 21:04:02.560 ,5,0,196.,0.8,8.,0.8,16.,0.8,1152.,0.8
1979-03-01 21:04:03.360 ,5,0,196.,0.8,4.,0.8,22.,0.8,1152.,0.8
1979-03-01 21:04:04.160 ,5,0,164.,0.8,7.,0.8,14.,0.8,1152.,0.8
1979-03-01 21:04:04.960 ,5,0,176.,0.8,5.,0.8,13.,0.8,1152.,0.8
1979-03-01 21:04:05.760 ,5,0,180.,0.8,7.,0.8,13.,0.8,1120.,0.8
1979-03-01 21:04:06.560 ,5,0,168.,0.8,6.,0.8,18.,0.8,1120.,0.8
1979-03-01 21:04:07.360 ,5,0,188.,0.8,7.,0.8,13.,0.8,1120.,0.8
1979-03-01 21:04:08.160 ,5,0,176.,0.8,3.,0.8,14.,0.8,1120.,0.8
1979-03-01 21:04:08.960 ,5,0,188.,0.8,5.,0.8,20.,0.8,1152.,0.8
1979-03-01 21:04:09.760 ,5,0,168.,0.8,6.,0.8,21.,0.8,1184.,0.8
1979-03-01 21:04:10.560 ,5,0,160.,0.8,6.,0.8,13.,0.8,1088.,0.8
1979-03-01 21:04:11.360 ,5,0,172.,0.8,8.,0.8,12.,0.8,1120.,0.8
1979-03-01 21:04:12.160 ,4,0,172.,0.8,6.,0.8,14.,0.8,1088.,0.8
1979-03-01 21:04:12.960 ,4,0,188.,0.8,6.,0.8,19.,0.8,1152.,0.8
1979-03-01 21:04:13.760 ,4,0,180.,0.8,6.,0.8,22.,0.8,1152.,0.8
1979-03-01 21:04:14.560 ,4,0,184.,0.8,4.,0.8,17.,0.8,1152.,0.8
1979-03-01 21:04:15.360 ,4,0,172.,0.8,4.,0.8,14.,0.8,1120.,0.8
1979-03-01 21:04:16.160 ,4,0,184.,0.8,8.,0.8,11.,0.8,1056.,0.8
1979-03-01 21:04:16.960 ,4,0,176.,0.8,7.,0.8,16.,0.8,1120.,0.8
1979-03-01 21:04:17.760 ,4,0,180.,0.8,3.,0.8,23.,0.8,1120.,0.8
1979-03-01 21:04:18.560 ,4,0,140.,0.8,8.,0.8,23.,0.8,1056.,0.8
1979-03-01 21:04:19.360 ,4,0,116.,0.8,5.,0.8,14.,0.8,1056.,0.8
1979-03-01 21:04:20.160 ,4,0,108.,0.8,5.,0.8,21.,0.8,1088.,0.8
1979-03-01 21:04:20.960 ,4,0,112.,0.8,5.,0.8,14.,0.8,1056.,0.8
1979-03-01 21:04:21.760 ,4,0,114.,0.8,3.,0.8,14.,0.8,1056.,0.8
1979-03-01 21:04:22.560 ,4,0,104.,0.8,3.,0.8,16.,0.8,1120.,0.8
1979-03-01 21:04:23.360 ,4,0,132.,0.8,2.,0.8,13.,0.8,1024.,0.8
1979-03-01 21:04:24.160 ,4,0,120.,0.8,4.,0.8,11.,0.8,1056.,0.8
1979-03-01 21:04:24.960 ,4,0,116.,0.8,5.,0.8,11.,0.8,1056.,0.8
1979-03-01 21:04:25.760 ,4,0,96.,0.8,5.,0.8,16.,0.8,1088.,0.8
1979-03-01 21:04:26.560 ,4,0,96.,0.8,1.,0.8,20.,0.8,1088.,0.8
1979-03-01 21:04:27.360 ,4,0,110.,0.8,3.,0.8,12.,0.8,1024.,0.8
1979-03-01 21:04:28.160 ,4,0,114.,0.8,2.,0.8,15.,0.8,1056.,0.8
1979-03-01 21:04:28.960 ,4,0,86.,0.8,4.,0.8,17.,0.8,1056.,0.8
1979-03-01 21:04:29.760 ,4,0,108.,0.8,3.,0.8,15.,0.8,1056.,0.8
1979-03-01 21:04:30.560 ,4,0,84.,0.8,2.,0.8,13.,0.8,1056.,0.8
1979-03-01 21:04:31.360 ,4,0,92.,0.8,6.,0.8,15.,0.8,1120.,0.8
1979-03-01 21:04:32.160 ,4,0,114.,0.8,3.,0.8,9.,0.8,1088.,0.8
1979-03-01 21:04:32.960 ,4,0,100.,0.8,3.,0.8,14.,0.8,1056.,0.8
1979-03-01 21:04:33.760 ,4,0,98.,0.8,4.,0.8,13.,0.8,1088.,0.8
1979-03-01 21:04:34.560 ,4,0,96.,0.8,3.,0.8,15.,0.8,1120.,0.8
1979-03-01 21:04:35.360 ,4,0,114.,0.8,6.,0.8,15.,0.8,1056.,0.8
1979-03-01 21:04:36.160 ,3,0,108.,0.8,4.,0.8,17.,0.8,1088.,0.8
1979-03-01 21:04:36.960 ,3,0,102.,0.8,7.,0.8,18.,0.8,1088.,0.8
1979-03-01 21:04:37.760 ,3,0,120.,0.8,6.,0.8,14.,0.8,1088.,0.8
1979-03-01 21:04:38.560 ,3,0,92.,0.8,1.,0.8,22.,0.8,1120.,0.8
1979-03-01 21:04:39.360 ,3,0,94.,0.8,2.,0.8,11.,0.8,1024.,0.8
1979-03-01 21:04:40.160 ,3,0,110.,0.8,2.,0.8,10.,0.8,1056.,0.8
1979-03-01 21:04:40.960 ,3,0,100.,0.8,3.,0.8,16.,0.8,1120.,0.8
1979-03-01 21:04:41.760 ,3,0,78.,0.8,4.,0.8,12.,0.8,1056.,0.8
1979-03-01 21:04:42.560 ,3,0,74.,0.8,6.,0.8,11.,0.8,848.,0.8
1979-03-01 21:04:43.360 ,3,0,39.,0.8,0.,0.8,9.,0.8,592.,0.8
1979-03-01 21:04:44.160 ,3,0,46.,0.8,3.,0.8,9.,0.8,592.,0.8
1979-03-01 21:04:44.960 ,3,0,34.,0.8,1.,0.8,12.,0.8,592.,0.8
1979-03-01 21:04:45.760 ,3,0,37.,0.8,5.,0.8,10.,0.8,576.,0.8
1979-03-01 21:04:46.560 ,3,0,48.,0.8,2.,0.8,15.,0.8,576.,0.8
1979-03-01 21:04:47.360 ,3,0,38.,0.8,2.,0.8,10.,0.8,560.,0.8
1979-03-01 21:04:48.160 ,3,0,43.,0.8,1.,0.8,8.,0.8,592.,0.8
1979-03-01 21:04:48.960 ,3,0,41.,0.8,1.,0.8,8.,0.8,640.,0.8
1979-03-01 21:04:49.760 ,3,0,44.,0.8,2.,0.8,13.,0.8,560.,0.8
1979-03-01 21:04:50.560 ,3,0,52.,0.8,3.,0.8,8.,0.8,576.,0.8
1979-03-01 21:04:51.360 ,3,0,52.,0.8,4.,0.8,17.,0.8,576.,0.8
1979-03-01 21:04:52.160 ,3,0,39.,0.8,2.,0.8,13.,0.8,608.,0.8
1979-03-01 21:04:52.960 ,3,0,42.,0.8,2.,0.8,8.,0.8,608.,0.8
1979-03-01 21:04:53.760 ,3,0,54.,0.8,0.,0.8,14.,0.8,560.,0.8
1979-03-01 21:04:54.560 ,3,0,35.,0.8,3.,0.8,18.,0.8,576.,0.8
1979-03-01 21:04:55.360 ,3,0,43.,0.8,3.,0.8,8.,0.8,576.,0.8
1979-03-01 21:04:56.160 ,3,0,42.,0.8,1.,0.8,13.,0.8,592.,0.8
1979-03-01 21:04:56.960 ,3,0,36.,0.8,2.,0.8,10.,0.8,528.,0.8
1979-03-01 21:04:57.760 ,3,0,41.,0.8,1.,0.8,5.,0.8,592.,0.8
1979-03-01 21:04:58.560 ,3,0,40.,0.8,3.,0.8,6.,0.8,560.,0.8
1979-03-01 21:04:59.360 ,3,0,37.,0.8,2.,0.8,12.,0.8,560.,0.8
1979-03-01 21:05:00.160 ,2,0,45.,0.8,0.,0.8,7.,0.8,576.,0.8
1979-03-01 21:05:00.960 ,2,0,44.,0.8,2.,0.8,9.,0.8,608.,0.8
1979-03-01 21:05:01.760 ,2,0,42.,0.8,1.,0.8,12.,0.8,576.,0.8
1979-03-01 21:05:02.560 ,2,0,32.,0.8,3.,0.8,13.,0.8,592.,0.8
1979-03-01 21:05:03.360 ,2,0,47.,0.8,2.,0.8,11.,0.8,592.,0.8
1979-03-01 21:05:04.160 ,2,0,45.,0.8,1.,0.8,8.,0.8,624.,0.8
1979-03-01 21:05:04.960 ,2,0,58.,0.8,2.,0.8,15.,0.8,576.,0.8
1979-03-01 21:05:05.760 ,2,0,30.,0.8,5.,0.8,5.,0.8,576.,0.8
1979-03-01 21:05:06.560 ,2,0,35.,0.8,0.,0.8,5.,0.8,784.,0.8
1979-03-01 21:05:07.360 ,2,0,23.,0.8,0.,0.8,5.,0.8,1056.,0.8
1979-03-01 21:05:08.160 ,2,0,22.,0.8,0.,0.8,8.,0.8,1024.,0.8
1979-03-01 21:05:08.960 ,2,0,20.,0.8,3.,0.8,6.,0.8,1056.,0.8
1979-03-01 21:05:09.760 ,2,0,21.,0.8,4.,0.8,8.,0.8,1024.,0.8
1979-03-01 21:05:10.560 ,2,0,16.,0.8,2.,0.8,6.,0.8,1056.,0.8
1979-03-01 21:05:11.360 ,2,0,13.,0.8,3.,0.8,7.,0.8,1056.,0.8
1979-03-01 21:05:12.160 ,2,0,15.,0.8,2.,0.8,7.,0.8,1024.,0.8
1979-03-01 21:05:12.960 ,2,0,12.,0.8,3.,0.8,5.,0.8,1024.,0.8
1979-03-01 21:05:13.760 ,2,0,15.,0.8,0.,0.8,13.,0.8,1024.,0.8
1979-03-01 21:05:14.560 ,2,0,18.,0.8,1.,0.8,6.,0.8,1024.,0.8
1979-03-01 21:05:15.360 ,2,0,18.,0.8,1.,0.8,9.,0.8,1024.,0.8
1979-03-01 21:05:16.160 ,2,0,21.,0.8,4.,0.8,9.,0.8,1056.,0.8
1979-03-01 21:05:16.960 ,2,0,17.,0.8,0.,0.8,9.,0.8,1024.,0.8